Tracking 28790 objects as of 19-Apr-2024
HD Live streaming from Space Station
objects crossing your sky now

STARLINK-3953

Track STARLINK-3953 now!
10-day predictions
STARLINK-3953 is classified as:


NORAD ID: 52559
Int'l Code: 2022-051AC
Perigee: 545.9 km
Apogee: 547.8 km
Inclination: 53.2 °
Period: 95.4 minutes
Semi major axis: 6917 km
RCS: Unknown
Launch date: May 13, 2022
Source: United States (US)
Launch site: AIR FORCE WESTERN TEST RANGE (AFWTR)
Your satellite tracking list
Your tracking list is empty




NASA's NSSDC Master Catalog

Two Line Element Set (TLE):
1 52559U 22051AC  24109.90532764  .00015017  00000-0  95939-3 0  9990
2 52559  53.2182 335.8665 0001339 102.5454 257.5688 15.08848484107449
Source of the keplerian elements: AFSPC